Preview of NWS' New Version of Forecast
This preview is not operational and should not be used for support decisions.

Regional Weather Roundup (RWR)

Issued by National Weather Service (NWS)

                            
000
ASUS46 KSEW 171410
RWRWA 

WASHINGTON REGIONAL WEATHER ROUNDUP
NATIONAL WEATHER SERVICE SEATTLE WA
700 AM PDT MON JUN 17 2019

NOTE:"FAIR" INDICATES FEW OR NO CLOUDS BELOW 12,000 FEET WITH NO 
SIGNIFICANT WEATHER AND/OR OBSTRUCTIONS TO VISIBILITY.

WAZ507-509-555>559-171500-
SEATTLE, TACOMA, EVERETT, AND VICINITY
  
CITY           SKY/WX    TMP DP  RH WIND       PRES   REMARKS
EVERETT        CLOUDY    54  52  93 CALM      30.13R                  
BOEING FIELD   CLOUDY    57  53  86 S3        30.12R                  
RENTON         CLOUDY    59  54  83 SW6       30.12R                  
SEATAC AIRPORT CLOUDY    56  52  86 SW6       30.12R FOG              
JBLM-MCCHORD   CLOUDY    56  56 100 SW5       30.13R                  
PUYALLUP       CLOUDY    55  55 100 CALM      30.13R                  
BREMERTON      CLOUDY    54  53  97 S5          N/A                   
JBLM-FT LEWIS  CLOUDY    55  55 100 S6        30.12R                  
TACOMA NARROWS CLOUDY    54  52  93 SW3       30.12S                  
$$
 
WAZ001-503-506-510-514-515-171500-
NORTH INTERIOR
  
CITY           SKY/WX    TMP DP  RH WIND       PRES   REMARKS
BELLINGHAM     PTSUNNY   57  51  80 S15       30.08R                  
FRIDAY HARBOR  MOSUNNY   56  51  84 CALM      30.09R                  
EASTSOUND      PTSUNNY   55  52  88 VRB7G13   30.07R                  
PORT ANGELES   CLOUDY    52  51  97 W8        30.12R                  
EDIZ HOOK      CLOUDY    52  51  97 W12G21    30.12R                  
PORT TOWNSEND  FOG       54  54 100 E5        30.11R VSB 1/2          
NAS WHIDBEY    PTSUNNY   57  51  80 SW12      30.15R                  
ARLINGTON      CLOUDY    56  52  86 NW5       30.13R                  
BURLINGTON     CLOUDY    55  54  94 SE5       30.12R                  
$$
 
WAZ020-022-039-040-504-511-512-171500-
SOUTHWEST INTERIOR
  
CITY           SKY/WX    TMP DP  RH WIND       PRES   REMARKS
SHELTON        CLOUDY    54  51  90 SW7       30.11R FOG              
OLYMPIA        CLOUDY    54  52  93 SW5       30.13R                  
CHEHALIS       CLOUDY    55  54  94 W3        30.14R                  
KELSO          CLOUDY    57  52  83 W7        30.14R                  
VANCOUVER      CLOUDY    59  51  75 N5        30.13R                  
SCAPPOOSE, OR  CLOUDY    57  52  83 NW3       30.12R                  
PORTLAND, OR   CLOUDY    60  52  74 N5        30.13R                  
$$
 
WAZ021-516-517-171500-
WASHINGTON COAST
  
CITY           SKY/WX    TMP DP  RH WIND       PRES   REMARKS
FORKS          FOG       53  53 100 CALM      30.14R VSB 3/4          
HOQUIAM        CLOUDY    54  54 100 W7        30.14R                  
ASTORIA, OR    CLOUDY    54  53  97 W6        30.15R FOG              
$$
 
WAZ019-023-024-040-567>569-171500-
CASCADE MOUNTAINS AND COLUMBIA GORGE
  
CITY           SKY/WX    TMP DP  RH WIND       PRES   REMARKS
STAMPEDE PASS  FOG       48  47  96 SW6       30.12R VSB 1/4          
TROUTDALE, OR  CLOUDY    59  52  77 W7        30.12R                  
HOOD RIVER, OR SUNNY     63  52  67 W5        30.02S                  
THE DALLES, OR SUNNY     64  52  64 W9G18     29.98R                  
$$

WAZ026-027-041>044-520-521-171500-
EAST SLOPES
  
CITY           SKY/WX    TMP DP  RH WIND       PRES   REMARKS
OMAK           SUNNY     67  52  58 N9        29.95R                  
WENATCHEE      MOSUNNY   68  46  45 NW9       29.96R                  
ELLENSBURG     SUNNY     64  48  56 NW23G31   29.98R                  
YAKIMA         SUNNY     69  47  45 NW14G24   29.97R                  
SUNNYSIDE ARPT SUNNY     61  54  77 CALM      29.95                   
YAKIMA TC      FAIR      65  47  50 E7        29.96                   
$$

WAZ028-034-035-171500-
COLUMBIA BASIN
  
CITY           SKY/WX    TMP DP  RH WIND       PRES   REMARKS
EPHRATA        MOSUNNY   71  48  43 NW12      29.92R                  
MOSES LAKE     MOSUNNY   72  50  45 W7        29.93R                  
PASCO          SUNNY     70  53  54 SW8       29.94R                  
RICHLAND ARPT  SUNNY     69  50  49 MISG      29.94R                  
HERMISTON, OR  SUNNY     69  50  50 SW13      29.95R                  
$$

WAZ036>038-171500-
NORTHEAST WASHINGTON
  
CITY           SKY/WX    TMP DP  RH WIND       PRES   REMARKS
SPOKANE GEIGER PTSUNNY   61  49  64 SE6       29.98R                  
SPOKANE FELTS  MOSUNNY   67  52  58 W5        29.97R                  
FAIRCHILD AFB  SUNNY     61  52  71 CALM      29.98                   
COEURDALENE,ID MOSUNNY   62  54  74 NE6       30.00R                  
DEER PARK      MOSUNNY   63  53  70 SE3       29.98R                  
$$

WAZ029>033-171500-
SOUTHEAST WASHINGTON
  
CITY           SKY/WX    TMP DP  RH WIND       PRES   REMARKS
PULLMAN        SUNNY     62  52  69 VRB3      30.01R                  
LEWISTON, ID   SUNNY     68  52  56 CALM      29.96R                  
WALLA WALLA    SUNNY     68  50  52 S9        29.97R                  
PENDLETON, OR  SUNNY     62  48  60 SE6       29.99R                  
$$